[[{"header":{"parameterUnit":"m.s-1","parameterCategory":1,"la1":30.2991,"la2":30.254,"lo1":-89.0895,"lo2":-89.0444,"dy":0.0017,"dx":0.0017,"nx":28,"ny":28,"refTime":"2025-04-21T21:00:00:Z","depth":0,"parameterNumber":2,"parameterNumberName":"U-component_of_WINDS"},"data":[0,0,0,0,0,0,0,0,0,0,0,0,0,0,0,0,0,0,0,0,0,0,0,0,0,0,0,0,0,0,0,0,0,0,0,0,0,0,0,0,0,0,0,0,0,0,0,0,0,0,0,0,0,0,0,0,0,0,-2.7092,-2.7093,0,-2.7137,-2.7137,-2.7138,-2.713,-2.7129,-2.7128,-2.7127,-2.7171,-2.7173,-2.7175,0,0,0,0,0,0,0,0,0,0,0,0,0,-2.7001,-2.7002,-2.7092,-2.7093,-2.7093,-2.7136,-2.7137,-2.7138,-2.713,-2.7129,-2.7128,-2.7127,-2.717,-2.7173,-2.7175,0,0,0,0,0,0,0,0,0,0,0,0,0,-2.7042,-2.7003,-2.7092,-2.7095,-2.7095,-2.7136,-2.7137,-2.7138,-2.713,-2.7129,-2.7128,-2.7126,-2.717,-2.7172,-2.7175,-2.7216,0,0,-2.7184,-2.7185,0,0,0,0,0,0,0,0,-2.704,-2.7045,-2.7094,-2.7094,-2.7095,-2.7126,-2.7121,-2.7164,-2.713,-2.7117,-2.7127,-2.7126,-2.7157,-2.7161,-2.7172,-2.7218,-2.722,-2.7184,-2.7186,-2.7187,-2.7188,0,0,0,0,0,0,0,-2.7037,-2.7044,-2.711,-2.7094,-2.7095,-2.7093,-2.7098,-2.7129,-2.7143,-2.7118,-2.7117,-2.7123,-2.7157,-2.7169,-2.7173,-2.7221,-2.7184,-2.7187,-2.7188,-2.7189,-2.7305,-2.7306,0,0,0,0,0,0,-2.7033,-2.7041,-2.7108,-2.7111,-2.7064,-2.7096,-2.7101,-2.7117,-2.7142,-2.7145,-2.7124,-2.7122,-2.7165,-2.7169,-2.7174,-2.7224,-2.7187,-2.719,-2.7191,-2.7303,-2.7305,-2.7306,0,0,0,0,0,0,-2.7031,-2.7039,-2.7106,-2.7076,-2.7084,-2.7099,-2.7117,-2.7119,-2.7131,-2.7147,-2.7149,-2.7133,-2.7164,-2.717,-2.7206,-2.7225,-2.7191,-2.7194,-2.7302,-2.7304,-2.7306,-2.7324,0,0,0,0,0,0,-2.7029,-2.7039,-2.7054,-2.7076,-2.7086,-2.7138,-2.7118,-2.7121,-2.7136,-2.7134,-2.7156,-2.7159,-2.7163,-2.7202,-2.7209,-2.7229,-2.7196,-2.73,-2.7303,-2.7305,-2.7321,-2.7326,-2.733,0,0,0,0,0,-2.7026,-2.7057,-2.7055,-2.7063,-2.7106,-2.7139,-2.7144,-2.7149,-2.7137,-2.7153,-2.7164,-2.7158,-2.7223,-2.7206,-2.7214,-2.7234,-2.7299,-2.7302,-2.7305,-2.7319,-2.7325,-2.733,0,0,0,0,0,0,-2.7035,-2.706,-2.7058,-2.7097,-2.7116,-2.7137,-2.7157,-2.7155,-2.7177,-2.7175,-2.718,-2.7185,-2.7221,-2.7232,-2.7212,-2.7276,-2.7259,-2.7264,-2.7267,-2.7273,-2.7277,-2.7273,-2.7198,0,0,0,0,0,-2.7042,-2.7067,-2.7087,-2.712,-2.713,-2.7142,-2.7157,-2.7159,-2.7179,-2.7186,-2.72,-2.7218,-2.7243,-2.7259,-2.7282,-2.7324,-2.7328,-2.7342,-2.7346,-2.735,-2.7353,-2.7377,-2.7383,-2.7316,-2.7316,-2.7316,0,0,-2.7056,-2.7073,-2.7088,-2.7123,-2.7138,-2.7163,-2.7149,-2.7176,-2.7195,-2.719,-2.7225,-2.7236,-2.7258,-2.7297,-2.7314,-2.7306,-2.7373,-2.7354,-2.7357,-2.7358,-2.738,-2.7387,-2.7392,-2.7318,-2.7318,-2.7318,0,0,-2.7095,-2.711,-2.714,-2.7156,-2.7179,-2.7187,-2.7194,-2.7217,-2.7224,-2.7259,-2.7256,-2.728,-2.7322,-2.7337,-2.7351,-2.7399,-2.7394,-2.7406,-2.7428,-2.7451,-2.7456,-2.7461,-2.7477,-2.7483,-2.741,-2.741,-2.741,0,-2.7109,-2.7148,-2.7155,-2.7183,-2.7199,-2.7197,-2.7227,-2.7242,-2.7272,-2.7282,-2.7273,-2.7327,-2.7341,-2.7384,-2.7396,-2.7408,-2.7416,-2.7402,-2.7455,-2.7459,-2.7464,-2.748,-2.7486,-2.7411,-2.7411,-2.7411,-2.7411,0,-2.7165,-2.7192,-2.7213,-2.7242,-2.7261,-2.7289,-2.7301,-2.7319,-2.7321,-2.733,-2.7367,-2.7385,-2.7412,-2.7423,-2.7425,-2.7467,-2.7461,-2.7454,-2.7436,-2.7471,-2.7486,-2.7493,-2.7413,-2.7413,-2.7412,-2.7412,0,0,-2.7208,-2.7243,-2.725,-2.7264,-2.7291,-2.7312,-2.7342,-2.737,-2.7384,-2.7406,-2.7431,-2.7468,-2.7462,-2.7477,-2.7481,-2.7501,-2.7538,-2.7491,-2.7492,-2.7498,-2.7585,-2.759,-2.7597,-2.7536,-2.7537,-2.7538,-2.7583,0,-2.7248,-2.7301,-2.7309,-2.7355,-2.738,-2.738,-2.7406,-2.7426,-2.7436,-2.7459,-2.7471,-2.7497,-2.7487,-2.7497,-2.7517,-2.7529,-2.7555,-2.7526,-2.7558,-2.756,-2.7551,-2.7605,-2.7609,-2.7651,-2.7589,-2.759,-2.7591,0,-2.7302,-2.7326,-2.7374,-2.7399,-2.741,-2.7433,-2.746,-2.7482,-2.7505,-2.7511,-2.753,-2.7532,-2.7563,-2.7546,-2.7589,-2.757,-2.7584,-2.7592,-2.7594,-2.7596,-2.7576,-2.7607,-2.7664,-2.767,-2.76,-2.76,-2.7599,0,-2.7328,-2.7372,-2.7407,-2.7419,-2.7449,-2.7465,-2.7479,-2.75,-2.7517,-2.7541,-2.7552,-2.7579,-2.7593,-2.7614,-2.7624,-2.7611,-2.7666,-2.765,-2.7672,-2.7672,-2.7682,-2.7681,-2.7741,-2.7694,-2.7693,-2.7693,-2.7693,0,-2.7371,-2.7401,-2.7419,-2.7441,-2.7474,-2.7484,-2.7517,-2.753,-2.755,-2.7574,-2.7576,-2.7599,-2.7611,-2.7635,-2.7643,-2.7678,-2.7684,-2.769,-2.7692,-2.7689,-2.7688,-2.7697,-2.7694,-2.7695,-2.7695,-2.7694,-2.7694,0,-2.7405,-2.7419,-2.7457,-2.7483,-2.749,-2.7514,-2.7536,-2.7557,-2.7568,-2.7599,-2.7607,-2.7624,-2.7654,-2.7666,-2.7702,-2.7707,-2.7747,-2.7746,-2.7739,-2.7739,-2.776,-2.7757,-2.7826,-2.7836,-2.7783,-2.7784,-2.7784,0,-2.7431,-2.7454,-2.7483,-2.75,-2.7514,-2.754,-2.7558,-2.7569,-2.7587,-2.7616,-2.7634,-2.7663,-2.7687,-2.7734,-2.775,-2.7778,-2.7778,-2.78,-2.7782,-2.7779,-2.7777,-2.7775,-2.7777,-2.7803,-2.7803,-2.7804,-2.7804,0,-2.7476,-2.7482,-2.7507,-2.7536,-2.7557,-2.7579,-2.7602,-2.7615,-2.763,-2.7651,-2.7681,-2.77,-2.7737,-2.7766,-2.7795,-2.7809,-2.7809,-2.781,-2.7817,-2.7814,-2.7808,-2.7811,-2.7747,-2.7808,-2.7808,-2.7807,-2.7807,-2.7807,-2.7506,-2.7527,-2.7551,-2.758,-2.7598,-2.7619,-2.764,-2.7655,-2.7681,-2.7712,-2.7718,-2.775,-2.7774,-2.7813,-2.7828,-2.7854,-2.7848,-2.7857,-2.7859,-2.7861,-2.7862,-2.7805,-2.7859,-2.7859,-2.7859,-2.7859,-2.7859,0,-2.7551,-2.7567,-2.7593,-2.7625,-2.7647,-2.7647,-2.7672,-2.7691,-2.7719,-2.7742,-2.7766,-2.7801,-2.783,-2.785,-2.7879,-2.7896,-2.7897,-2.7903,-2.7901,-2.7904,-2.7866,-2.7857,-2.7902,-2.7902,-2.7902,-2.7902,-2.7902,-2.7902,-2.7577,-2.7612,-2.7621,-2.7666,-2.7682,-2.7714,-2.7728,-2.7748,-2.7766,-2.7805,-2.783,-2.7842,-2.7864,-2.7895,-2.7922,-2.7927,-2.7937,-2.7944,-2.7948,-2.7912,-2.7907,-2.7903,-2.7894,-2.7946,-2.7946,-2.7985,-2.7985,-2.7985]},{"header":{"parameterUnit":"m.s-1","parameterCategory":1,"la1":30.2991,"la2":30.254,"lo1":-89.0895,"lo2":-89.0444,"dy":0.0017,"dx":0.0017,"nx":28,"ny":28,"refTime":"2025-04-21T21:00:00:Z","depth":0,"parameterNumber":3,"parameterNumberName":"V-component_of_WINDS"},"data":[0,0,0,0,0,0,0,0,0,0,0,0,0,0,0,0,0,0,0,0,0,0,0,0,0,0,0,0,0,0,0,0,0,0,0,0,0,0,0,0,0,0,0,0,0,0,0,0,0,0,0,0,0,0,0,0,0,0,2.6576,2.6577,0,2.6618,2.6619,2.6619,2.6654,2.6655,2.6655,2.6655,2.6696,2.6697,2.6698,0,0,0,0,0,0,0,0,0,0,0,0,0,2.6525,2.6526,2.6576,2.6577,2.6577,2.6618,2.6619,2.6619,2.6654,2.6655,2.6655,2.6655,2.6696,2.6697,2.6698,0,0,0,0,0,0,0,0,0,0,0,0,0,2.6555,2.6526,2.6576,2.66,2.6602,2.6618,2.6619,2.6619,2.6654,2.6655,2.6655,2.6656,2.6696,2.6697,2.6698,2.6694,0,0,2.6702,2.6702,0,0,0,0,0,0,0,0,2.6553,2.6557,2.6596,2.6598,2.6601,2.6632,2.6616,2.6644,2.6654,2.6634,2.6655,2.6656,2.6674,2.6677,2.6684,2.6696,2.6697,2.6702,2.6702,2.6703,2.6703,0,0,0,0,0,0,0,2.6551,2.6555,2.6593,2.6596,2.6599,2.6608,2.6613,2.6621,2.665,2.6636,2.6639,2.6643,2.6676,2.6683,2.6685,2.6698,2.6702,2.6703,2.6703,2.6704,2.6709,2.6709,0,0,0,0,0,0,2.6546,2.6553,2.6591,2.6594,2.6578,2.6608,2.6614,2.6621,2.6651,2.6656,2.6643,2.6645,2.668,2.6684,2.6687,2.6684,2.6703,2.6704,2.6704,2.671,2.6709,2.6709,0,0,0,0,0,0,2.6545,2.6549,2.659,2.6575,2.658,2.6608,2.6617,2.6622,2.6629,2.6656,2.6661,2.6644,2.6681,2.6685,2.6692,2.6686,2.6704,2.6705,2.671,2.671,2.6709,2.6678,0,0,0,0,0,0,2.6543,2.6548,2.6547,2.6574,2.6581,2.6595,2.6616,2.6622,2.6631,2.6634,2.6659,2.6663,2.6682,2.669,2.6693,2.6688,2.6706,2.6711,2.671,2.6709,2.668,2.6676,2.6673,0,0,0,0,0,2.6541,2.6536,2.6547,2.6551,2.658,2.6594,2.6598,2.662,2.663,2.6629,2.6646,2.6662,2.6686,2.6691,2.6694,2.6689,2.6712,2.671,2.6709,2.6681,2.6677,2.6673,0,0,0,0,0,0,2.6506,2.654,2.6552,2.6556,2.6572,2.66,2.6599,2.6615,2.6628,2.663,2.6656,2.6662,2.6666,2.6678,2.6683,2.6687,2.6701,2.6701,2.6678,2.6675,2.6671,2.6668,2.6707,0,0,0,0,0,2.6499,2.6508,2.6537,2.6537,2.6545,2.6571,2.6577,2.6593,2.6611,2.6617,2.6636,2.6652,2.6663,2.6669,2.6681,2.6682,2.6688,2.668,2.6677,2.6674,2.6673,2.6675,2.6672,2.6705,2.6705,2.6705,0,0,2.6484,2.6503,2.6507,2.6531,2.6545,2.6554,2.6576,2.6584,2.659,2.6618,2.6626,2.664,2.666,2.6664,2.6667,2.6674,2.6666,2.6673,2.667,2.6671,2.6674,2.6671,2.6668,2.6704,2.6704,2.6704,0,0,2.6461,2.6477,2.6479,2.6493,2.6515,2.6533,2.6533,2.6559,2.657,2.6579,2.66,2.6608,2.6627,2.664,2.6649,2.6633,2.6649,2.6636,2.6619,2.6621,2.6618,2.6616,2.6611,2.6608,2.6635,2.6635,2.6635,0,2.6439,2.6453,2.6478,2.6485,2.6495,2.6522,2.6525,2.6537,2.6561,2.6567,2.6576,2.6601,2.6616,2.6624,2.662,2.6626,2.6628,2.6633,2.6617,2.6615,2.6613,2.6608,2.6606,2.6634,2.6634,2.6634,2.6634,0,2.6426,2.6435,2.6435,2.6459,2.6468,2.6473,2.6498,2.6505,2.652,2.6537,2.6546,2.6565,2.6582,2.6585,2.6599,2.6595,2.6599,2.6612,2.6627,2.6608,2.6604,2.6602,2.6631,2.6632,2.6632,2.6633,0,0,2.6381,2.642,2.6419,2.643,2.6457,2.6465,2.6471,2.6488,2.6493,2.651,2.6515,2.6531,2.6544,2.6554,2.6571,2.6572,2.6559,2.6585,2.6586,2.6579,2.6555,2.6545,2.6543,2.6569,2.6569,2.6569,2.6554,0,2.6362,2.6375,2.6398,2.6404,2.6413,2.644,2.6445,2.6462,2.6478,2.6488,2.6506,2.6517,2.6532,2.6539,2.6541,2.6559,2.6554,2.6561,2.6575,2.6575,2.6569,2.6541,2.653,2.6515,2.6552,2.6552,2.6552,0,2.6342,2.6358,2.6364,2.6391,2.6396,2.6401,2.6419,2.6428,2.6448,2.6459,2.6472,2.649,2.6498,2.6512,2.6524,2.6528,2.6535,2.6545,2.6545,2.6547,2.6562,2.6541,2.651,2.6508,2.6549,2.655,2.655,0,2.6309,2.6331,2.6338,2.6347,2.6379,2.6382,2.6395,2.6416,2.6425,2.644,2.6447,2.6463,2.6471,2.6484,2.6506,2.6514,2.6515,2.6531,2.6525,2.6524,2.6523,2.6523,2.6493,2.6528,2.6528,2.6528,2.6528,0,2.6285,2.6288,2.6324,2.6328,2.6333,2.6359,2.6363,2.6379,2.6397,2.6405,2.6429,2.6436,2.6465,2.6475,2.6493,2.65,2.6504,2.6513,2.6518,2.6511,2.651,2.6515,2.6517,2.6528,2.6528,2.6528,2.6528,0,2.6248,2.6272,2.6282,2.6312,2.6319,2.6321,2.6347,2.6352,2.637,2.638,2.6383,2.6411,2.6425,2.6448,2.6468,2.648,2.6484,2.6492,2.6477,2.648,2.6473,2.6473,2.6445,2.6443,2.648,2.6479,2.6479,0,2.6232,2.6235,2.6265,2.6273,2.6285,2.6296,2.6306,2.6333,2.6342,2.6366,2.6368,2.6384,2.6397,2.6418,2.644,2.6455,2.6464,2.6453,2.6466,2.646,2.6464,2.6463,2.6464,2.645,2.6449,2.6449,2.6448,0,2.6199,2.6212,2.6225,2.6243,2.6254,2.6269,2.6285,2.629,2.632,2.6329,2.6344,2.6354,2.6376,2.6391,2.641,2.6424,2.6441,2.6444,2.6444,2.6436,2.6428,2.6433,2.6469,2.6445,2.6445,2.6445,2.6445,2.6446,2.6172,2.6176,2.6199,2.6213,2.6229,2.6243,2.625,2.6269,2.6282,2.6302,2.6317,2.633,2.6351,2.6379,2.6392,2.6402,2.641,2.641,2.6409,2.6409,2.6406,2.6427,2.6406,2.6406,2.6406,2.6406,2.6407,0,2.6141,2.6157,2.617,2.6193,2.6204,2.6221,2.624,2.6248,2.626,2.6278,2.6292,2.6309,2.6324,2.6347,2.6365,2.6369,2.6377,2.6372,2.6372,2.6375,2.6398,2.6397,2.6365,2.6365,2.6365,2.6365,2.6365,2.6365,2.6126,2.6135,2.615,2.6166,2.6182,2.6196,2.6206,2.622,2.6235,2.6253,2.6266,2.6281,2.6302,2.6321,2.6336,2.6342,2.6348,2.634,2.6349,2.637,2.6373,2.6377,2.6376,2.6341,2.6341,2.6326,2.6325,2.6325]}]]